Printer-friendly version

IAU Minor Planet Center

Minor Planet Center

MPEC 2000-G16: 2000 DH8

The following Minor Planet Electronic Circular may be linked-to from your own Web pages, but must not otherwise be redistributed electronically.


Read MPEC 2000-G15 Read MPEC 2000-G17


M.P.E.C. 2000-G16                                Issued 2000 Apr. 4, 15:14 UT

     The Minor Planet Electronic Circulars contain information on unusual
         minor planets and routine data on comets.  They are published
   on behalf of Commission 20 of the International Astronomical Union by the
          Minor Planet Center, Smithsonian Astrophysical Observatory,
                          Cambridge, MA 02138, U.S.A.

             Prepared using the Tamkin Foundation Computer Network

             BMARSDEN@CFA.HARVARD.EDU or GWILLIAMS@CFA.HARVARD.EDU
          URL http://cfa-www.harvard.edu/iau/mpc.html  ISSN 1523-6714

                                   2000 DH8

                           Revision to MPEC 2000-E08

Observations:
     K00D08H 1 1995 02 26.29375 11 04 07.61 +05 29 43.5                      675
     K00D08H 1 1995 02 26.35625 11 04 08.69 +05 37 04.8                      675

Observer details:
675 Palomar Mountain.  Trail located and measured by A. Boattini, G. Forti,
    M. Tombelli, L. Tesi.  1.2-m Schmidt.

Orbital elements:
2000 DH8
Epoch 2000 Feb. 26.0 TT = JDT 2451600.5                 Williams
M 348.65098              (2000.0)            P               Q
n   0.39535631     Peri.   25.23540     -0.96556906     +0.14502927
a   1.8385563      Node   159.26863     -0.09953977     -0.97297575
e   0.3052205      Incl.   37.59720     +0.24035022     +0.17967946
P   2.49           H   18.3           G   0.15           U   2
Residuals in seconds of arc
950226 675  0.7+  1.5+    000228 413  0.4+  0.3-    000302 344  0.1-  0.3+
950226 675  1.0-  0.3-    000228 413  0.4+  0.1-    000302 344  0.1-  0.0
000226 703  1.0+  0.7+    000228 413  0.3+  0.0     000303 106  0.2+  0.2+
000226 703  0.0   1.6+    000228 344  1.8+  0.3-    000303 106  0.3+  0.4+
000226 703  0.8+  1.2+    000228 344  1.7+  0.0     000303 104  0.1+  0.4-
000226 703  0.1-  0.6+    000228 344  1.0+  0.2-    000303 104  1.2-  1.0-
000226 046  0.3+  0.3+    000228 422  0.0   0.1-    000304 866  0.2+  1.0+
000226 046  0.1+  0.1-    000228 422  0.2-  0.1-    000304 866  0.1+  0.9+
000226 046  0.1+  0.3+    000228 422  0.3-  0.0     000304 704  1.3-  1.3-
000226 046  0.0   0.1+    000228 595  1.2-  0.8-    000304 704  0.2+  0.3-
000226 046  0.4+  0.0     000228 595  0.3+  0.1-    000304 704  0.4+  0.0
000226 046  0.3+  0.4+    000228 595  0.5-  0.9-    000304 866  0.1-  0.8-
000226 118  0.2+  0.1-    000228 595  1.7-  0.4-    000304 704  0.5+  0.4+
000226 557  0.0   0.1-    000228 046  0.1-  0.5+    000304 704  0.8+  0.3-
000226 118  0.0   0.1-    000228 046  0.8-  0.2-    000304 118  0.2+  0.4-
000226 557  0.1-  0.1-    000228 046  0.8-  0.7+    000304 118  0.6+  0.6-
000226 557  0.2-  0.2-    000228 046  0.7+  0.8-    000304 118  0.1-  0.7-
000226 557  0.0   0.1+    000229 344  0.0   0.9+    000305 610  0.8-  0.0
000226 118  0.2-  0.1+    000229 344  0.0   0.7+    000305 610  0.6-  0.0
000226 611  0.4+  0.6-    000301 858  0.6-  0.2-    000305 610  0.4-  0.1+
000226 611  0.3+  0.2+    000301 858  0.5-  0.1-    000305 610  0.2-  0.2+
000226 611  0.2-  0.7+    000301 858  0.3-  0.2+    000305 610  0.0   0.3+
000226 611  0.2-  0.7+    000301 858  0.6-  0.5-    000305 610  0.3+  0.3+
000226 611  0.4+  0.3+    000301 344  0.3-  0.1-    000310 703  0.3+  1.2+
000227 734  0.0   0.8+    000301 344  0.3-  0.0     000310 703  0.0   1.1+
000227 734  0.5-  0.2+    000301 344  0.4-  0.1+    000310 703  0.1+  1.0+
000227 734  0.0   1.4-    000301 900  0.6-  0.1-    000310 703  0.2+  1.5+
000227 651  0.9+  1.0-    000301 900  0.2-  0.2-    000312 670  0.2+  0.0
000227 651  0.9+  0.9-    000301 422  0.1-  0.1-    000312 670  0.5+  1.3+
000227 651  0.8+  1.0-    000301 422  0.5-  0.3-    000314 402  0.4-  0.5-
000227 413  0.1-  0.3-    000301 422  0.2-  0.2-    000314 402  0.1+  0.3-
000227 413  0.2-  0.3-    000301 402  0.1+  0.7-    000314 402  0.3+  0.3+
000227 046  0.3+  0.4+    000301 402  0.1-  0.1-    000314 360  0.1-  0.3-
000227 046  0.3+  0.4-    000301 402  0.2-  0.2-    000314 360  0.1-  0.0
000227 046  0.1+  0.2-    000301 402  0.1-  1.0-    000314 360  0.0   0.2-
000227 046  0.0   0.2+    000302 670  1.0-  1.1-    000324 658  0.5-  0.2+
000227 046  0.1+  0.2+    000302 670  1.0-  1.0-    000324 658  0.1-  0.4+
000228 118  0.0   0.4-    000302 474  0.1-  0.6+    000324 658  0.2-  0.1-
000228 118  0.3+  0.6+    000302 474  0.0   0.1-    000325 704  0.4+  0.3+
000228 118  0.7+  0.5+    000302 474  0.1-  0.0     000325 704  0.0   0.8-
000228 734  0.4-  1.0-    000302 474  0.4+  0.3+    000325 704  0.3-  0.0
000228 734  0.4-  0.2+    000302 474  0.4+  0.3+    000325 704  0.5+  1.2-
000228 734  0.3-  0.6+    000302 344  0.0   0.3+    000325 704  0.5+  0.2-

Ephemeris:
2000 DH8                 a,e,i = 1.84, 0.31, 38                  q = 1.2774
Date    TT    R. A. (2000) Decl.     Delta      r     Elong.  Phase     V
2000 03 27    12 41.07   +55 46.9    0.432    1.277   121.5    41.8    18.6
2000 04 01    12 47.28   +59 22.0    0.471    1.278   116.1    44.6    18.9
2000 04 06    12 53.43   +61 58.5    0.513    1.281   111.5    46.6    19.2
2000 04 11    12 59.60   +63 48.2    0.554    1.285   107.7    48.0    19.4
2000 04 16    13 05.84   +65 00.4    0.596    1.290   104.6    48.8    19.6
2000 04 21    13 12.14   +65 42.4    0.636    1.296   102.0    49.3    19.7
2000 04 26    13 18.50   +65 59.6    0.676    1.304    99.8    49.5    19.9

2000 05 06    13 31.47   +65 33.8    0.750    1.323    96.4    49.3    20.1
2000 05 16    13 44.98   +64 04.7    0.817    1.346    94.2    48.5    20.3
2000 05 26    13 59.01   +61 45.4    0.877    1.373    92.9    47.4    20.5
2000 06 05    14 13.54   +58 43.2    0.931    1.404    92.3    46.2    20.6
2000 06 15    14 28.66   +55 03.3    0.980    1.437    92.2    44.9    20.8
2000 06 25    14 44.30   +50 50.6    1.025    1.473    92.3    43.6    20.9
2000 07 05    15 00.48   +46 09.5    1.071    1.511    92.7    42.2    21.0
2000 07 15    15 17.22   +41 06.0    1.118    1.549    93.0    40.9    21.1
2000 07 25    15 34.47   +35 47.5    1.170    1.589    93.0    39.7    21.2
2000 08 04    15 52.24   +30 22.0    1.230    1.630    92.6    38.5    21.3
2000 08 14    16 10.51   +24 58.6    1.299    1.670    91.7    37.3    21.5
2000 08 24    16 29.23   +19 46.0    1.378    1.711    90.1    36.2    21.6
2000 09 03    16 48.39   +14 51.4    1.469    1.751    87.9    35.1    21.8
2000 09 13    17 07.95   +10 20.7    1.570    1.791    85.1    34.0    22.0

Gareth V. Williams           (C) Copyright 2000 MPC           M.P.E.C. 2000-G16

Read MPEC 2000-G15 Read MPEC 2000-G17


Our Web policy. Index to the CBAT/MPC/ICQ pages.


Valid HTML 4.01!